This demonstration page uses our WeatherBlox Daily Observations layout. Learn more.

Left ArrowRight Arrow

Hourly Observations for April 1, 2020

Temp ( °F °C ) Dew Point ( °F °C ) Humidity (%) Winds ( mph kmh ) Pressure ( in mb ) Visibility ( mi km ) Precip ( " mm )
12:51 am 00:51 Clear 55 12.8 36 2.2 49 49 Calm 29.79 1009 10 16.0934 0 0
1:51 am 01:51 Clear 54 12.2 36 2.2 51 51 Calm 29.78 1009 10 16.0934 0 0
2:51 am 02:51 Clear 53 11.7 37 2.8 55 55 Calm 29.77 1008 10 16.0934 0 0
3:51 am 03:51 Clear 51 10.6 37 2.8 59 59 SE 3 6 29.76 1008 10 16.0934 0 0
4:51 am 04:51 Clear 52 11.1 37 2.8 57 57 S 7 11 29.77 1008 10 16.0934 0 0
5:51 am 05:51 Clear 53 11.7 36 2.2 52 52 E 7 11 29.77 1008 10 16.0934 0 0
6:51 am 06:51 Sunny 53 11.7 37 2.8 55 55 ESE 5 7 29.79 1009 10 16.0934 0 0
7:51 am 07:51 Sunny 56 13.3 39 3.9 53 53 SSW 7 11 29.79 1009 10 16.0934 0 0
8:51 am 08:51 Sunny 61 16.1 39 3.9 44 44 N 3 6 29.8 1009 10 16.0934 0 0
9:51 am 09:51 Sunny 68 20 35 1.7 30 30 Calm 29.78 1009 10 16.0934 0 0
10:51 am 10:51 Sunny 73 22.8 31 -0.6 21 21 Calm 29.77 1008 10 16.0934 0 0
11:51 am 11:51 Sunny 76 24.4 28 -2.2 17 17 VRB 3 6 29.73 1007 10 16.0934 0 0
12:51 pm 12:51 Sunny 78 25.6 26 -3.3 15 15 VRB 3 6 29.7 1006 10 16.0934 0 0
1:51 pm 13:51 Sunny 81 27.2 27 -2.8 14 14 WNW 10 17 29.67 1005 10 16.0934 0 0
2:51 pm 14:51 Sunny 81 27.2 29 -1.7 15 15 undefined N/A 29.65 1004 10 16.0934 0 0
3:51 pm 15:51 Sunny 82 27.8 29 -1.7 14 14 WNW 15 24 29.64 1004 10 16.0934 0 0
4:51 pm 16:51 Sunny 82 27.8 28 -2.2 14 14 NW 14 22 29.64 1004 10 16.0934 0 0
5:51 pm 17:51 Sunny 79 26.1 28 -2.2 15 15 NW 18 30 29.66 1004 10 16.0934 0 0
6:51 pm 18:51 Clear 73 22.8 27 -2.8 18 18 NW 14 22 29.67 1005 10 16.0934 0 0
7:51 pm 19:51 Clear 70 21.1 27 -2.8 20 20 NNW 12 19 29.7 1006 10 16.0934 0 0
8:51 pm 20:51 Clear 66 18.9 27 -2.8 23 23 WNW 9 15 29.72 1007 10 16.0934 0 0
9:51 pm 21:51 Clear 62 16.7 28 -2.2 28 28 NNW 9 15 29.73 1007 10 16.0934 0 0
10:51 pm 22:51 Clear 62 16.7 27 -2.8 26 26 NNW 10 17 29.72 1007 10 16.0934 0 0
11:51 pm 23:51 Clear 64 17.8 28 -2.2 26 26 NW 10 17 29.72 1007 10 16.0934 0 0

Powered by AerisWeather